EW7966 Weather Reports


time (UTC)temp
C
wind
direction
speed
KPH
gust
KPH
rain 1hr
cm
rain 24hr
cm
rain mn
cm
humidity
%
barometer
mb
20260902102004 13 161 1.6 8.0 0.00 0.00 0.00 72 1018.8
20260902101503 13 161 3.2 8.0 0.00 0.00 0.00 72 1018.8
20260902100504 13 161 0.0 3.2 0.00 0.00 0.00 72 1018.9
20260902100006 13 161 0.0 4.8 0.00 0.00 0.00 71 1018.9
20260902100002 13 161 0.0 4.8 0.00 0.00 0.00 71 1003.8
20260902095504 13 161 0.0 4.8 0.00 0.00 0.00 72 1018.9
20260902095005 13 161 3.2 8.0 0.00 0.00 0.00 72 1018.8
20260902094505 13 161 1.6 4.8 0.00 0.00 0.00 72 1018.8
20260902094503 13 161 1.6 4.8 0.00 0.00 0.00 72 1003.6
20260902094004 14 161 1.6 4.8 0.00 0.00 0.00 71 1018.8
20260902093503 14 161 3.2 8.0 0.00 0.00 0.00 70 1018.8
20260902093006 14 161 4.8 8.0 0.00 0.00 0.00 70 1018.8
20260902093002 14 161 3.2 8.0 0.00 0.00 0.00 70 1003.6
20260902092504 15 161 4.8 8.0 0.00 0.00 0.00 69 1018.8
20260902091503 15 161 4.8 8.0 0.00 0.00 0.00 69 1018.7
20260902091006 14 161 6.4 8.0 0.00 0.00 0.00 70 1018.7
20260902090504 14 161 4.8 4.8 0.00 0.00 0.00 71 1018.8
20260902090006 14 161 3.2 6.4 0.00 0.00 0.00 71 1018.8
20260902090002 14 161 1.6 6.4 0.00 0.00 0.00 71 1003.7
20260902085503 14 161 3.2 4.8 0.00 0.00 0.00 72 1018.8
20260902085005 14 161 1.6 4.8 0.00 0.00 0.00 73 1018.8
20260902084602 15 161 3.2 4.8 0.00 0.00 0.00 71 1003.7
20260902084500 15 161 3.2 6.4 0.00 0.00 0.00 71 1018.8
20260902084005 15 161 0.0 9.7 0.00 0.00 0.00 72 1018.8
20260902083503 15 161 8.0 9.7 0.00 0.00 0.00 72 1018.8
20260902083001 15 161 4.8 8.0 0.00 0.00 0.00 72 1003.7
20260902082503 15 161 3.2 8.0 0.00 0.00 0.00 71 1018.8
20260902082005 15 161 4.8 6.4 0.00 0.00 0.00 72 1018.8
20260902081504 15 161 1.6 8.0 0.00 0.00 0.00 72 1018.8
20260902081005 15 161 3.2 8.0 0.00 0.00 0.00 72 1018.9
20260902080503 15 161 4.8 8.0 0.00 0.00 0.00 72 1018.9
20260902080007 15 161 3.2 4.8 0.00 0.00 0.00 72 1019.0
20260902080002 15 161 1.6 4.8 0.00 0.00 0.00 72 1003.9
20260902075504 15 161 3.2 3.2 0.00 0.00 0.00 71 1019.0
20260902075005 15 161 1.6 4.8 0.00 0.00 0.00 71 1019.1
20260902074503 15 161 3.2 4.8 0.00 0.00 0.00 72 1019.1
20260902074004 15 161 3.2 4.8 0.00 0.00 0.00 73 1019.2
20260902073503 15 161 3.2 6.4 0.00 0.00 0.00 73 1019.2
20260902073005 15 161 3.2 8.0 0.00 0.00 0.00 72 1019.2
20260902073002 15 161 1.6 8.0 0.00 0.00 0.00 72 1004.0
20260902072504 15 161 1.6 8.0 0.00 0.00 0.00 71 1019.1
20260902072005 16 161 1.6 9.7 0.00 0.00 0.00 71 1019.1
20260902071508 15 161 3.2 12.9 0.00 0.00 0.00 71 1004.0
20260902071504 15 161 3.2 12.9 0.00 0.00 0.00 71 1019.2
20260902071004 15 158 9.7 12.9 0.00 0.00 0.00 71 1019.3
20260902070504 16 180 3.2 8.0 0.00 0.00 0.00 70 1019.2
20260902070007 16 180 1.6 14.5 0.00 0.00 0.00 68 1019.1
20260902070003 16 180 1.6 14.5 0.00 0.00 0.00 68 1004.0
20260902065004 16 188 8.0 11.3 0.00 0.00 0.00 68 1019.3
20260902064505 16 175 6.4 9.7 0.00 0.00 0.00 68 1019.3
20260902064503 16 175 4.8 9.7 0.00 0.00 0.00 68 1004.1
20260902064004 16 151 4.8 9.7 0.00 0.00 0.00 68 1019.1
20260902063504 16 209 4.8 6.4 0.00 0.00 0.00 69 1019.0
20260902063005 16 209 3.2 4.8 0.00 0.00 0.00 68 1018.9
20260902063002 16 209 1.6 4.8 0.00 0.00 0.00 68 1003.8
20260902062504 16 209 1.6 6.4 0.00 0.00 0.00 67 1019.0
20260902062005 16 209 3.2 8.0 0.00 0.00 0.00 67 1018.9
20260902061503 17 198 3.2 11.3 0.00 0.00 0.00 67 1019.0
20260902060504 17 215 6.4 12.9 0.00 0.00 0.00 67 1018.8
20260902060003 17 239 3.2 12.9 0.00 0.00 0.00 67 1003.8
20260902055504 17 245 3.2 11.3 0.00 0.00 0.00 66 1019.0
20260902055006 17 244 3.2 6.4 0.00 0.00 0.00 64 1019.1
20260902054505 17 244 3.2 11.3 0.00 0.00 0.00 63 1019.0
20260902054502 17 244 3.2 11.3 0.00 0.00 0.00 63 1003.8
20260902054004 17 189 4.8 11.3 0.00 0.00 0.00 63 1019.0
20260902053504 17 211 6.4 11.3 0.00 0.00 0.00 63 1019.1
20260902053005 18 180 4.8 14.5 0.00 0.00 0.00 62 1019.0
20260902053003 18 180 4.8 14.5 0.00 0.00 0.00 62 1003.9
20260902052006 18 181 6.4 16.1 0.00 0.00 0.00 61 1018.8
20260902051505 18 209 8.0 16.1 0.00 0.00 0.00 61 1018.8
20260902051502 18 209 6.4 16.1 0.00 0.00 0.00 61 1003.7
20260902051007 18 193 8.0 16.1 0.00 0.00 0.00 61 1018.8
20260902050505 18 180 9.7 19.3 0.00 0.00 0.00 60 1018.8
20260902050009 18 199 8.0 19.3 0.00 0.00 0.00 60 1003.8
20260902044504 19 183 12.9 22.5 0.00 0.00 0.00 59 1019.0
20260902044502 19 183 12.9 22.5 0.00 0.00 0.00 59 1004.0
20260902044006 19 171 12.9 22.5 0.00 0.00 0.00 59 1019.1
20260902043007 19 171 12.9 22.5 0.00 0.00 0.00 59 1004.4
20260902042506 19 183 14.5 19.3 0.00 0.00 0.00 59 1019.3
20260902042006 18 157 11.3 14.5 0.00 0.00 0.00 58 1019.4
20260902041505 18 158 9.7 16.1 0.00 0.00 0.00 58 1019.4
20260902041502 18 158 9.7 16.1 0.00 0.00 0.00 58 1004.6
20260902041006 18 178 9.7 14.5 0.00 0.00 0.00 57 1019.4
20260902040006 18 146 9.7 14.5 0.00 0.00 0.00 57 1019.5
20260902040003 18 146 8.0 14.5 0.00 0.00 0.00 57 1004.8
20260902035504 18 157 11.3 14.5 0.00 0.00 0.00 57 1019.4
20260902035005 19 179 9.7 12.9 0.00 0.00 0.00 57 1019.5
20260902034603 19 183 8.0 14.5 0.00 0.00 0.00 57 1004.7
20260902034501 19 161 8.0 14.5 0.00 0.00 0.00 57 1019.4
20260902033505 19 188 9.7 12.9 0.00 0.00 0.00 56 1019.4
20260902033004 19 144 6.4 14.5 0.00 0.00 0.00 56 1004.6
20260902032505 19 177 9.7 16.1 0.00 0.00 0.00 56 1019.3
20260902032006 20 185 11.3 16.1 0.00 0.00 0.00 55 1019.4
20260902031505 19 180 11.3 16.1 0.00 0.00 0.00 56 1019.4
20260902031503 19 180 11.3 16.1 0.00 0.00 0.00 56 1004.7
20260902031007 19 155 9.7 16.1 0.00 0.00 0.00 56 1019.3
20260902030003 19 169 8.0 12.9 0.00 0.00 0.00 55 1004.6
20260902025504 19 172 8.0 12.9 0.00 0.00 0.00 55 1019.2
20260902025006 19 153 9.7 11.3 0.00 0.00 0.00 55 1019.1
20260902024505 19 177 8.0 12.9 0.00 0.00 0.00 55 1019.0
20260902024502 19 177 8.0 12.9 0.00 0.00 0.00 55 1004.3
20260902023504 19 154 8.0 14.5 0.00 0.00 0.00 52 1018.7
20260902023005 20 146 8.0 14.5 0.00 0.00 0.00 51 1018.6
20260902023003 20 146 8.0 14.5 0.00 0.00 0.00 51 1003.9
20260902022504 21 136 8.0 14.5 0.00 0.00 0.00 49 1018.6
20260902021504 21 174 9.7 19.3 0.00 0.00 0.00 45 1018.4
20260902021502 21 173 8.0 19.3 0.00 0.00 0.00 45 1003.7
20260902021005 21 173 12.9 19.3 0.00 0.00 0.00 44 1018.4
20260902020504 21 150 9.7 12.9 0.00 0.00 0.00 44 1018.2
20260902020006 21 157 8.0 11.3 0.00 0.00 0.00 44 1018.1
20260902015505 21 147 6.4 11.3 0.00 0.00 0.00 44 1018.1
20260902015005 21 148 6.4 8.0 0.00 0.00 0.00 43 1018.1
20260902014504 21 147 6.4 11.3 0.00 0.00 0.00 43 1018.0
20260902014502 21 147 4.8 11.3 0.00 0.00 0.00 43 1003.3
20260902014007 22 147 6.4 11.3 0.00 0.00 0.00 43 1018.0
20260902013504 22 162 6.4 9.7 0.00 0.00 0.00 42 1017.9
20260902013006 22 174 6.4 9.7 0.00 0.00 0.00 42 1018.0
20260902013003 22 174 6.4 9.7 0.00 0.00 0.00 42 1003.2
20260902012505 22 147 6.4 11.3 0.00 0.00 0.00 43 1018.0
20260902012006 22 147 8.0 11.3 0.00 0.00 0.00 42 1018.0
20260902011505 22 128 6.4 11.3 0.00 0.00 0.00 43 1018.0
20260902011503 22 128 6.4 11.3 0.00 0.00 0.00 43 1003.2
20260902011005 23 128 8.0 14.5 0.00 0.00 0.00 42 1018.0
20260902010505 23 110 9.7 14.5 0.00 0.00 0.00 40 1017.9
20260902010006 24 101 6.4 11.3 0.00 0.00 0.00 39 1017.8
20260902005505 24 109 8.0 12.9 0.00 0.00 0.00 38 1017.8
20260902005005 24 111 8.0 12.9 0.00 0.00 0.00 38 1017.9
20260902004505 24 69 4.8 14.5 0.00 0.00 0.00 40 1017.9
20260902004503 24 69 3.2 14.5 0.00 0.00 0.00 40 1003.2
20260902004007 24 59 8.0 16.1 0.00 0.00 0.00 40 1017.8
20260902003505 24 64 9.7 16.1 0.00 0.00 0.00 40 1017.7
20260902003007 24 61 8.0 17.7 0.00 0.00 0.00 41 1017.8
20260902003004 24 61 6.4 17.7 0.00 0.00 0.00 41 1003.2
20260902002505 24 75 11.3 17.7 0.00 0.00 0.00 40 1017.8
20260902001506 24 50 8.0 19.3 0.00 0.00 0.00 39 1003.2
20260902001005 25 49 14.5 20.9 0.00 0.00 0.00 37 1017.9
20260902000504 25 65 16.1 20.9 0.00 0.00 0.00 36 1017.8
20260902000006 24 46 9.7 16.1 0.00 0.00 0.00 36 1017.9
20260902000004 24 46 8.0 16.1 0.00 0.00 0.00 36 1003.3
20260901235506 25 56 8.0 17.7 0.00 0.00 0.00 37 1017.8
20260901235006 25 27 6.4 16.1 0.00 0.00 0.00 35 1017.8
20260901234507 25 38 6.4 11.3 0.00 0.00 0.00 35 1017.9
20260901234503 25 38 6.4 11.3 0.00 0.00 0.00 35 1003.3
20260901233504 25 37 4.8 8.0 0.00 0.00 0.00 33 1017.8
20260901233005 25 79 4.8 11.3 0.00 0.00 0.00 33 1017.8
20260901233002 25 79 3.2 11.3 0.00 0.00 0.00 33 1003.2
20260901232002 25 122 9.7 17.7 0.00 0.00 0.00 30 1017.8
20260901231558 25 123 6.4 16.1 0.00 0.00 0.00 32 1003.3
20260901231005 25 119 11.3 17.7 0.00 0.00 0.00 31 1017.9
20260901230006 26 134 12.9 19.3 0.00 0.00 0.00 30 1017.9
20260901230003 26 134 12.9 19.3 0.00 0.00 0.00 30 1003.4
20260901225004 26 120 12.9 22.5 0.00 0.00 0.00 30 1017.9
20260901224506 26 142 16.1 20.9 0.00 0.00 0.00 30 1017.9
20260901224503 26 142 14.5 20.9 0.00 0.00 0.00 30 1003.4
20260901224006 26 133 14.5 22.5 0.00 0.00 0.00 30 1017.9
20260901223505 27 133 11.3 22.5 0.00 0.00 0.00 29 1018.0
20260901223004 27 44 4.8 14.5 0.00 0.00 0.00 26 1003.5
20260901222006 27 171 9.7 14.5 0.00 0.00 0.00 26 1018.1
20260901221503 27 175 8.0 14.5 0.00 0.00 0.00 26 1003.6
20260901221005 27 304 6.4 9.7 0.00 0.00 0.00 26 1018.2
20260901220009 26 224 1.6 14.5 0.00 0.00 0.00 27 1018.2
20260901220003 26 224 0.0 14.5 0.00 0.00 0.00 27 1003.7
20260901215506 26 224 1.6 25.7 0.00 0.00 0.00 27 1018.3
20260901215005 26 150 9.7 25.7 0.00 0.00 0.00 27 1018.4
20260901214505 27 190 9.7 17.7 0.00 0.00 0.00 26 1018.4
20260901214503 27 190 8.0 17.7 0.00 0.00 0.00 26 1004.0
20260901213504 27 182 14.5 27.4 0.00 0.00 0.00 27 1018.5
20260901213006 27 132 12.9 27.4 0.00 0.00 0.00 25 1018.5
20260901213004 27 132 12.9 27.4 0.00 0.00 0.00 25 1004.1
20260901212506 27 305 6.4 16.1 0.00 0.00 0.00 25 1018.5
20260901211505 27 201 8.0 16.1 0.00 0.00 0.00 28 1018.6
20260901211503 27 201 6.4 16.1 0.00 0.00 0.00 28 1004.2
20260901211006 27 254 4.8 12.9 0.00 0.00 0.00 26 1018.8
20260901210007 27 118 9.7 16.1 0.00 0.00 0.00 27 1019.0
20260901210003 27 118 8.0 16.1 0.00 0.00 0.00 27 1004.5
20260901205505 27 164 8.0 16.1 0.00 0.00 0.00 26 1019.0
20260901204504 27 238 8.0 16.1 0.00 0.00 0.00 27 1019.1
20260901204502 27 238 6.4 16.1 0.00 0.00 0.00 27 1004.7
20260901204006 26 257 8.0 17.7 0.00 0.00 0.00 25 1019.1
20260901203510 26 152 12.9 17.7 0.00 0.00 0.00 27 1019.2
20260901203009 26 203 8.0 16.1 0.00 0.00 0.00 27 1019.4
20260901203004 26 203 8.0 16.1 0.00 0.00 0.00 27 1004.9
20260901202505 26 306 3.2 12.9 0.00 0.00 0.00 28 1019.4
20260901202006 26 314 6.4 16.1 0.00 0.00 0.00 28 1019.4
20260901201508 26 201 9.7 16.1 0.00 0.00 0.00 27 1005.0
20260901201005 26 227 6.4 16.1 0.00 0.00 0.00 28 1019.5
20260901200504 25 149 6.4 16.1 0.00 0.00 0.00 31 1019.5
20260901200009 25 163 3.2 9.7 0.00 0.00 0.00 30 1005.2
20260901195505 25 187 3.2 11.3 0.00 0.00 0.00 28 1019.7
20260901195005 25 9 3.2 17.7 0.00 0.00 0.00 27 1019.7
20260901194505 25 10 9.7 22.5 0.00 0.00 0.00 27 1019.8
20260901194006 26 298 11.3 22.5 0.00 0.00 0.00 28 1019.6
20260901193504 26 248 8.0 14.5 0.00 0.00 0.00 28 1019.9
20260901193006 25 307 8.0 14.5 0.00 0.00 0.00 28 1019.9
20260901193004 25 307 6.4 14.5 0.00 0.00 0.00 28 1005.4
20260901192504 25 295 8.0 19.3 0.00 0.00 0.00 32 1019.9
20260901192006 25 281 9.7 20.9 0.00 0.00 0.00 30 1019.9
20260901191504 25 225 9.7 38.6 0.00 0.00 0.00 30 1020.0
20260901191502 25 225 9.7 38.6 0.00 0.00 0.00 30 1005.5
20260901191006 25 269 16.1 38.6 0.00 0.00 0.00 32 1019.9
20260901190004 25 173 6.4 17.7 0.00 0.00 0.00 31 1005.4
20260901185005 25 290 6.4 19.3 0.00 0.00 0.00 32 1020.2
20260901184505 24 261 6.4 19.3 0.00 0.00 0.00 32 1020.4
20260901184503 24 261 4.8 19.3 0.00 0.00 0.00 32 1005.9
20260901184006 25 291 8.0 19.3 0.00 0.00 0.00 31 1020.5
20260901183504 25 264 11.3 22.5 0.00 0.00 0.00 32 1020.5
20260901183006 25 284 12.9 22.5 0.00 0.00 0.00 32 1020.5
20260901183002 25 284 12.9 22.5 0.00 0.00 0.00 32 1005.9
20260901182506 25 198 3.2 9.7 0.00 0.00 0.00 35 1020.5
20260901182006 24 304 1.6 9.7 0.00 0.00 0.00 33 1020.6
20260901181505 24 55 1.6 8.0 0.00 0.00 0.00 32 1020.7
20260901181007 24 300 4.8 12.9 0.00 0.00 0.00 32 1020.7
20260901180505 23 5 6.4 14.5 0.00 0.00 0.00 35 1020.8
20260901180007 23 319 8.0 16.1 0.00 0.00 0.00 35 1021.0
20260901180003 23 319 6.4 16.1 0.00 0.00 0.00 35 1006.3
20260901175504 23 303 6.4 17.7 0.00 0.00 0.00 34 1021.0
20260901175007 23 248 8.0 14.5 0.00 0.00 0.00 37 1021.0
20260901174513 23 333 4.8 14.5 0.00 0.00 0.00 40 1006.4
20260901174506 23 333 6.4 14.5 0.00 0.00 0.00 40 1021.0
20260901174008 22 244 4.8 14.5 0.00 0.00 0.00 45 1021.1
20260901173005 22 265 8.0 16.1 0.00 0.00 0.00 45 1021.2
20260901173003 22 265 8.0 16.1 0.00 0.00 0.00 45 1006.6
20260901172504 22 275 4.8 16.1 0.00 0.00 0.00 45 1021.3
20260901172006 21 246 6.4 16.1 0.00 0.00 0.00 49 1021.4
20260901171502 21 222 4.8 12.9 0.00 0.00 0.00 48 1006.9
20260901171005 21 284 6.4 12.9 0.00 0.00 0.00 47 1021.6
20260901170505 21 244 6.4 12.9 0.00 0.00 0.00 47 1021.6
20260901170007 21 250 4.8 14.5 0.00 0.00 0.00 48 1021.6
20260901170003 21 250 4.8 14.5 0.00 0.00 0.00 48 1006.9
20260901165505 21 284 4.8 20.9 0.00 0.00 0.00 51 1021.7
20260901165005 21 282 8.0 20.9 0.00 0.00 0.00 51 1021.7
20260901164504 20 281 6.4 17.7 0.00 0.00 0.00 51 1021.8
20260901164502 20 281 6.4 17.7 0.00 0.00 0.00 51 1007.1
20260901164010 20 306 8.0 14.5 0.00 0.00 0.00 52 1021.8
20260901163505 20 255 4.8 12.9 0.00 0.00 0.00 54 1021.7
20260901163007 20 260 4.8 8.0 0.00 0.00 0.00 54 1021.7
20260901163004 20 260 3.2 8.0 0.00 0.00 0.00 54 1007.0
20260901162505 20 270 3.2 12.9 0.00 0.00 0.00 54 1021.6
20260901162007 19 270 4.8 17.7 0.00 0.00 0.00 55 1021.7
20260901161506 19 242 8.0 16.1 0.00 0.00 0.00 54 1021.6
20260901161502 19 242 6.4 16.1 0.00 0.00 0.00 54 1006.9
20260901161005 19 246 6.4 16.1 0.00 0.00 0.00 55 1021.4
20260901160507 19 251 4.8 12.9 0.00 0.00 0.00 55 1021.4
20260901160006 18 263 4.8 14.5 0.00 0.00 0.00 55 1021.3
20260901155505 18 281 8.0 17.7 0.00 0.00 0.00 56 1021.3
20260901155005 18 283 8.0 17.7 0.00 0.00 0.00 56 1021.3
20260901154505 18 245 6.4 17.7 0.00 0.00 0.00 57 1021.2
20260901154502 18 245 4.8 17.7 0.00 0.00 0.00 57 1006.6
20260901153005 18 293 4.8 14.5 0.00 0.00 0.00 57 1021.1
20260901153002 18 293 4.8 14.5 0.00 0.00 0.00 57 1006.4
20260901152005 18 215 4.8 17.7 0.00 0.00 0.00 58 1021.1
20260901151504 18 301 8.0 19.3 0.00 0.00 0.00 57 1021.1
20260901151501 18 301 8.0 19.3 0.00 0.00 0.00 57 1006.4
20260901151006 18 262 9.7 19.3 0.00 0.00 0.00 57 1021.0
20260901150505 18 210 8.0 19.3 0.00 0.00 0.00 58 1020.8
20260901150008 18 252 8.0 19.3 0.00 0.00 0.00 59 1006.1
20260901145505 17 230 4.8 11.3 0.00 0.00 0.00 62 1021.0
20260901145005 17 266 4.8 8.0 0.00 0.00 0.00 64 1020.9
20260901144503 17 232 1.6 8.0 0.00 0.00 0.00 66 1006.2
20260901144005 17 240 3.2 8.0 0.00 0.00 0.00 65 1021.0
20260901143505 17 212 3.2 9.7 0.00 0.00 0.00 65 1020.7
20260901143006 17 236 3.2 14.5 0.00 0.00 0.00 66 1020.7
20260901143002 17 236 1.6 14.5 0.00 0.00 0.00 66 1006.0
20260901142506 17 248 4.8 14.5 0.00 0.00 0.00 65 1020.7
20260901142006 16 252 6.4 11.3 0.00 0.00 0.00 67 1020.6
20260901141506 16 246 4.8 8.0 0.00 0.00 0.00 69 1020.6
20260901141503 16 246 3.2 8.0 0.00 0.00 0.00 69 1005.8
20260901140504 16 248 1.6 8.0 0.00 0.00 0.00 69 1020.6
20260901140007 16 248 4.8 12.9 0.00 0.00 0.00 68 1020.6
20260901140002 16 248 3.2 12.9 0.00 0.00 0.00 68 1005.8
20260901135504 16 225 4.8 12.9 0.00 0.00 0.00 68 1020.6
20260901135006 16 230 3.2 11.3 0.00 0.00 0.00 69 1020.7
20260901134505 16 243 4.8 11.3 0.00 0.00 0.00 68 1020.7
20260901134502 16 243 4.8 11.3 0.00 0.00 0.00 68 1005.9
20260901133504 16 255 4.8 9.7 0.00 0.00 0.00 71 1020.5
20260901133005 15 280 3.2 9.7 0.00 0.00 0.00 73 1020.5
20260901133003 15 280 3.2 9.7 0.00 0.00 0.00 73 1005.6
20260901132505 15 238 1.6 9.7 0.00 0.00 0.00 74 1020.3
20260901131505 15 233 4.8 11.3 0.00 0.00 0.00 76 1020.3
20260901131502 15 233 3.2 11.3 0.00 0.00 0.00 76 1005.4
20260901131006 15 223 4.8 12.9 0.00 0.00 0.00 77 1020.2
20260901130505 15 200 6.4 12.9 0.00 0.00 0.00 77 1020.1
20260901130057 15 173 6.4 12.9 0.00 0.00 0.00 77 1005.2
20260901130007 15 227 8.0 12.9 0.00 0.00 0.00 77 1020.1
20260901130003 15 227 6.4 12.9 0.00 0.00 0.00 77 1005.2
20260901125504 15 205 4.8 12.9 0.00 0.00 0.00 77 1019.9
20260901125006 15 196 6.4 16.1 0.00 0.00 0.00 77 1019.9
20260901124505 15 201 6.4 16.1 0.00 0.00 0.00 77 1019.8
20260901124006 15 202 6.4 12.9 0.00 0.00 0.00 77 1019.9
20260901123504 15 209 6.4 14.5 0.00 0.00 0.00 76 1019.8
20260901123006 15 240 6.4 14.5 0.00 0.00 0.00 76 1004.7
20260901122505 15 233 6.4 11.3 0.00 0.00 0.00 76 1019.6
20260901122004 15 265 6.4 12.9 0.00 0.00 0.00 76 1019.5
20260901121502 15 206 4.8 11.3 0.00 0.00 0.00 77 1004.6
20260901121005 15 201 3.2 8.0 0.00 0.00 0.00 77 1019.4
20260901120006 15 234 4.8 11.3 0.00 0.00 0.00 77 1019.4
20260901114504 14 226 4.8 8.0 0.00 0.00 0.00 79 1019.5
20260901114005 14 226 1.6 4.8 0.00 0.00 0.00 79 1019.5
20260901113505 14 226 0.0 3.2 0.00 0.00 0.00 79 1019.6
20260901113006 14 226 0.0 9.7 0.00 0.00 0.00 79 1019.6
20260901113003 14 226 0.0 9.7 0.00 0.00 0.00 79 1004.8
20260901112504 14 173 3.2 8.0 0.00 0.00 0.00 80 1019.9
20260901112006 14 173 4.8 8.0 0.00 0.00 0.00 80 1019.8
20260901111503 14 173 3.2 6.4 0.00 0.00 0.00 80 1019.9
20260901111000 14 173 3.2 6.4 0.00 0.00 0.00 80 1019.9
20260901110003 14 173 1.6 6.4 0.00 0.00 0.00 80 1005.3
20260901105504 14 173 3.2 6.4 0.00 0.00 0.00 79 1020.1
20260901104505 14 173 3.2 4.8 0.00 0.00 0.00 79 1020.2
20260901104502 14 173 1.6 4.8 0.00 0.00 0.00 79 1005.4
20260901104006 14 173 1.6 4.8 0.00 0.00 0.00 80 1020.3
20260901103504 14 173 1.6 4.8 0.00 0.00 0.00 80 1020.2
20260901103005 14 173 0.0 3.2 0.00 0.00 0.00 80 1020.2
20260901103002 14 173 0.0 3.2 0.00 0.00 0.00 80 1005.4